Regional Weather Roundup
Issued by NWS

Home | Current Version | Previous Version | Graphics & Text | Print | Product List | Glossary On
Versions: 1 2 3 4 5 6 7 8 9 10 11 12 13 14 15 16 17 18 19 20 21 22 23 24 25 26 27 28 29 30 31 32 33 34 35 36 37 38 39 40 41 42 43 44 45 46 47 48 49 50
000
ASUS45 KABQ 261201
RWRNM
NEW MEXICO REGIONAL WEATHER ROUNDUP
NATIONAL WEATHER SERVICE ALBUQUERQUE NM
600 AM MDT FRI MAY 26 2017

NOTE: "FAIR" MEANS FEW OR NO CLOUDS BELOW 12,000 FEET AGL WITH NO
       SIGNIFICANT WEATHER OR OBSTRUCTIONS TO VISION.

      THIS PRODUCT IS RELEASED AS TWO VERSIONS.  ONE VERSION NEAR
      THE TOP OF THE HOUR CONTAINING PRELIMINARY DATA FROM ALBUQUERQUE
      AND OTHER STATIONS.  A FINAL VERSION WITH ADDITIONAL DATA IS
      ISSUED ABOUT 10 MINUTES AFTER THE HOUR.

NMZ501-503-504-510>518-261300-
NORTHWEST PLATEAU/NORTHCENTRAL MOUNTAINS

CITY           SKY/WX    TMP DP  RH WIND       PRES   REMARKS
FARMINGTON     FAIR      51  21  30 E9        29.94R
6HR MIN TEMP:  50; 6HR MAX TEMP:  67;

LOS ALAMOS     FAIR      55  12  18 E3        30.08R
SANTA FE       FAIR      47  14  26 E7        30.04R
6HR MIN TEMP:  46; 6HR MAX TEMP:  60;

TAOS           FAIR      45  10  24 S5        30.08R
ANGEL FIRE     FAIR      48  12  23 CALM      30.13R

$$
NMZ402-403-502-505>509-261300-
WESTCENTRAL MOUNTAINS/SOUTHWEST MOUNTAINS

CITY           SKY/WX    TMP DP  RH WIND       PRES   REMARKS
GALLUP         FAIR      50  16  25 S8        30.05R
6HR MIN TEMP:  45; 6HR MAX TEMP:  59;

GRANTS         FAIR      48  13  24 CALM      30.06S
SILVER CITY    FAIR      46  18  31 N10       30.05R

$$
NMZ407-409-411-412-261300-
SOUTHERN DESERTS

CITY           SKY/WX    TMP DP  RH WIND       PRES   REMARKS
DEMING         FAIR      58  25  28 W9        30.00R
6HR MIN TEMP:  55; 6HR MAX TEMP:  73;

LAS CRUCES     FAIR      57  24  28 NW3       30.01R
HOLLOMAN AFB   FAIR      69  22  16 SW9       30.01R
ALAMOGORDO     FAIR      66  19  16 SW5       29.99R
T OR C         FAIR      63  16  16 NW7       29.99R
6HR MIN TEMP:  62; 6HR MAX TEMP:  74;


$$
NMZ519>523-261300-
CENTRAL VALLEYS/CENTRAL HIGHLANDS

CITY           SKY/WX    TMP DP  RH WIND       PRES   REMARKS
ALBUQUERQUE    FAIR      53  12  19 SE6       30.01R
6HR MIN TEMP:  52; 6HR MAX TEMP:  69;

DOUBLE EAGLE   PTCLDY    46  16  29 SW5       30.03R
MORIARTY ARPT  FAIR      53  15  22 SW6       30.06R
6HR MIN TEMP:  50; 6HR MAX TEMP:  68;

CLINES CORNERS FAIR      51  13  21 W16       30.07R
6HR MIN TEMP:  44; 6HR MAX TEMP:  58;

BELEN          FAIR      50  13  22 W9        30.01R
6HR MIN TEMP:  47; 6HR MAX TEMP:  66;

SOCORRO        FAIR      59  12  16 S6        29.99R
6HR MIN TEMP:  55; 6HR MAX TEMP:  71;


$$
NMZ524>526-539-540-261300-
SOUTHCENTRAL MOUNTAINS

CITY           SKY/WX    TMP DP  RH WIND       PRES   REMARKS
RUIDOSO        NOT AVBL

$$
NMZ527>531-261300-
NORTHEAST HIGHLANDS/NORTHEAST PLAINS

CITY           SKY/WX    TMP DP  RH WIND       PRES   REMARKS
LAS VEGAS      FAIR      54  10  17 NW6       30.04R
6HR MIN TEMP:  49; 6HR MAX TEMP:  63;

RATON          FAIR      47  39  74 N8        30.00R
6HR MIN TEMP:  44; 6HR MAX TEMP:  63;

CLAYTON        FAIR      52  46  80 NW12      29.95R
6HR MIN TEMP:  50; 6HR MAX TEMP:  55;


$$
NMZ532>537-261300-
EASTCENTRAL PLAINS

CITY           SKY/WX    TMP DP  RH WIND       PRES   REMARKS
SANTA ROSA     FAIR      54  17  23 SW3       29.94R
TUCUMCARI      FAIR      53  43  68 CALM      29.91R
6HR MIN TEMP:  48; 6HR MAX TEMP:  74;

CANNON AFB     FAIR      62  20  20 NW13      29.91R
6HR MIN TEMP:  57; 6HR MAX TEMP:  69;

CLOVIS AIRPORT FAIR      57  23  26 NW10      29.90R

$$
NMZ028-029-538-261300-
SOUTHEAST PLAINS

CITY           SKY/WX    TMP DP  RH WIND       PRES   REMARKS
ROSWELL        FAIR      63  21  20 NW3       29.89R
6HR MIN TEMP:  56; 6HR MAX TEMP:  74;

ARTESIA        FAIR      64  23  20 W10       29.89R
CARLSBAD       FAIR      71  24  17 W12       29.87R
6HR MIN TEMP:  71; 6HR MAX TEMP:  78;

HOBBS          CLEAR     66  21  18 SW7       29.90R


$$



USA.gov is the U.S. government's official web portal to all federal, state and local government web resources and services.